Torna al catalogo

STARLINK-30203

AttivoComunicazioniVLEO
NORAD 57498·PAYLOAD·🇺🇸 United States

Lanciato Aug 7, 2023 da Cape Canaveral Space Force Station

Loading…

Prossimi Passaggi (prossime 24 ore)

TLE

AggiornatoSource: CelesTrak SupGP

Epoca: Sep 14, 2026, 13:54 UTC

1 57498C 23113D   26257.57965278 -.00012537  00000+0 -45412-3 0  2579
2 57498  43.0046  29.0880 0002017 268.9555 183.8984 15.27583032    17

Traccia STARLINK-30203 in tempo reale con AllMySat

Download on the App Store